N1SU-13 Weather Reports


Display with metric or nautical units.
time (UTC)temp
F
wind
direction
speed
MPH
gust
MPH
rain 1hr
in
rain 24hr
in
rain mn
in
humidity
%
barometer
mb
20260504050639 67 0.0 0.0 0.00 0.00 0.00 55 1008.2
20260504045459 68 0.0 0.0 0.00 0.00 0.00 55 1008.0
20260504044527 69 0.0 0.0 0.00 0.00 0.00 54 1008.1
20260504043516 70 0.0 0.0 0.00 0.00 0.00 55 1008.0
20260504042544 70 0.0 0.0 0.00 0.00 0.00 52 1007.9
20260504041520 71 0.0 0.0 0.00 0.00 0.00 53 1007.8
20260504040549 72 0.0 0.0 0.00 0.00 0.00 53 1007.7
20260504035416 73 0.0 0.0 0.00 0.00 0.00 52 1007.5
20260504034254 74 0.0 0.0 0.00 0.00 0.00 50 1007.4
20260504033121 76 0.0 0.0 0.00 0.00 0.00 48 1007.2
20260504032150 77 0.0 0.0 0.00 0.00 0.00 46 1007.1
20260504031043 78 0.0 0.0 0.00 0.00 0.00 45 1006.9
20260504030050 81 0.0 0.0 0.00 0.00 0.00 40 1006.8
20260504025002 84 0.0 0.0 0.00 0.00 0.00 36 1006.5
20260504023832 85 0.0 0.0 0.00 0.00 0.00 33 1006.4
20260504022834 87 0.0 0.0 0.00 0.00 0.00 33 1006.3
20260504021757 87 0.0 0.0 0.00 0.00 0.00 33 1006.4
20260504020830 86 0.0 0.0 0.00 0.00 0.00 33 1006.4
20260504015903 86 0.0 0.0 0.00 0.00 0.00 32 1006.4
20260504014839 86 0.0 0.0 0.00 0.00 0.00 33 1006.5
20260504013809 86 0.0 0.0 0.00 0.00 0.00 31 1006.5
20260504012812 85 0.0 0.0 0.00 0.00 0.00 33 1006.6
20260504011719 83 0.0 0.0 0.00 0.00 0.00 35 1006.8
20260504010718 84 0.0 0.0 0.00 0.00 0.00 36 1006.8
20260504005628 83 0.0 0.0 0.00 0.00 0.00 37 1006.9
20260504004609 82 0.0 0.0 0.00 0.00 0.00 38 1007.1
20260504003549 82 0.0 0.0 0.00 0.00 0.00 38 1007.1
20260504002533 82 0.0 0.0 0.00 0.00 0.00 38 1007.2
20260504001450 82 0.0 0.0 0.00 0.00 0.00 38 1007.4
20260504000510 82 0.0 0.0 0.00 0.00 0.00 38 1007.4
20260503235458 81 0.0 0.0 0.00 0.00 0.00 38 1007.6
20260503234521 81 0.0 0.0 0.00 0.00 0.00 39 1007.7
20260503233342 81 0.0 0.0 0.00 0.00 0.00 39 1007.7
20260503232227 80 0.0 0.0 0.00 0.00 0.00 40 1008.1
20260503231128 80 0.0 0.0 0.00 0.00 0.00 41 1008.2
20260503230035 80 0.0 0.0 0.00 0.00 0.00 41 1008.3
20260503225035 80 0.0 0.0 0.00 0.00 0.00 42 1008.4
20260503223920 79 0.0 0.0 0.00 0.00 0.00 42 1008.6
20260503222940 79 0.0 0.0 0.00 0.00 0.00 43 1008.7
20260503221825 78 0.0 0.0 0.00 0.00 0.00 44 1008.8
20260503220824 77 0.0 0.0 0.00 0.00 0.00 44 1009.0
20260503215700 77 0.0 0.0 0.00 0.00 0.00 46 1009.2
20260503214718 77 0.0 0.0 0.00 0.00 0.00 47 1009.3
20260503213712 74 0.0 0.0 0.00 0.00 0.00 47 1009.4
20260503212657 75 0.0 0.0 0.00 0.00 0.00 47 1009.5
20260503211657 75 0.0 0.0 0.00 0.00 0.00 47 1009.6
20260503210550 75 0.0 0.0 0.00 0.00 0.00 49 1009.7
20260503205452 74 0.0 0.0 0.00 0.00 0.00 50 1009.9
20260503204324 73 0.0 0.0 0.00 0.00 0.00 50 1010.1
20260503203149 73 0.0 0.0 0.00 0.00 0.00 51 1010.3
20260503202123 71 0.0 0.0 0.00 0.00 0.00 51 1010.5
20260503201150 72 0.0 0.0 0.00 0.00 0.00 52 1010.5
20260503200213 72 0.0 0.0 0.00 0.00 0.00 53 1010.6
20260503195154 71 0.0 0.0 0.00 0.00 0.00 54 1010.9
20260503194141 71 0.0 0.0 0.00 0.00 0.00 56 1010.9
20260503193209 70 0.0 0.0 0.00 0.00 0.00 58 1011.1
20260503192247 70 0.0 0.0 0.00 0.00 0.00 58 1011.3
20260503191157 69 0.0 0.0 0.00 0.00 0.00 61 1011.5
20260503190151 69 0.0 0.0 0.00 0.00 0.00 61 1011.5
20260503185208 68 0.0 0.0 0.00 0.00 0.00 60 1011.6
20260503184116 68 0.0 0.0 0.00 0.00 0.00 59 1011.8
20260503183107 67 0.0 0.0 0.00 0.00 0.00 63 1011.9
20260503182103 66 0.0 0.0 0.00 0.00 0.00 64 1012.1
20260503181059 66 0.0 0.0 0.00 0.00 0.00 65 1012.2
20260503175959 65 0.0 0.0 0.00 0.00 0.00 67 1012.3
20260503175009 64 0.0 0.0 0.00 0.00 0.00 68 1012.5
20260503173848 63 0.0 0.0 0.00 0.00 0.00 70 1012.5
20260503172733 62 0.0 0.0 0.00 0.00 0.00 72 1012.7
20260503171618 62 0.0 0.0 0.00 0.00 0.00 73 1012.7
20260503170607 61 0.0 0.0 0.00 0.00 0.00 75 1012.8
20260503150627 56 0.0 0.0 0.00 0.00 0.00 75 1013.1
20260503131334 52 0.0 0.0 0.00 0.00 0.00 80 1013.2
20260503130315 52 0.0 0.0 0.00 0.00 0.00 79 1013.2
20260503120219 53 0.0 0.0 0.00 0.00 0.00 79 1013.3
20260503081541 57 0.0 0.0 0.00 0.00 0.00 69 1013.6
20260503080454 57 0.0 0.0 0.00 0.00 0.00 69 1013.5
20260503072234 58 0.0 0.0 0.00 0.00 0.00 67 1013.5
20260503071118 59 0.0 0.0 0.00 0.00 0.00 66 1013.4
20260503054501 62 0.0 0.0 0.00 0.00 0.00 61 1013.1